When you browse on this site, cookies collect data to enhance your experience and personalize the content and advertising you see.
Visit our Privacy Policy to learn more. By continuing to use the site, you agree to this use of cookies and data.
  • In Czech Republic
  • List of Countries
  • For 7 days
  • Water Temperature
  • Satellite Maps
  • Weather Map
  • Weather Widgets
  • user-avatar
    Login

    Hourly Weather Cioara

    Today, 24 July, Wednesday

    Time Temperature Precipitation Wind Pressure Humidity
    00:00 +17°C° 0 mm 2 mps 757 mmHg 86%
    01:00 +17°C° 0 mm 3 mps 756 mmHg 88%
    02:00 +16°C° 0 mm 3 mps 756 mmHg 90%
    03:00 +16°C° 0 mm 3 mps 756 mmHg 91%
    04:00 +16°C° 0 mm 3 mps 756 mmHg 92%
    05:00 +14°C° 0 mm 3 mps 756 mmHg 93%
    06:00 +17°C° 0 mm 4 mps 756 mmHg 86%
    07:00 +19°C° 0 mm 5 mps 756 mmHg 79%
    08:00 +21°C° 0 mm 6 mps 756 mmHg 72%
    09:00 +22°C° 0 mm 6 mps 756 mmHg 65%
    10:00 +24°C° 0 mm 6 mps 756 mmHg 58%
    11:00 +27°C° 0 mm 6 mps 756 mmHg 52%
    12:00 +27°C° 0 mm 6 mps 756 mmHg 49%
    13:00 +28°C° 0 mm 6 mps 756 mmHg 47%
    14:00 +29°C° 0 mm 6 mps 755 mmHg 45%
    15:00 +29°C° 0 mm 6 mps 755 mmHg 46%
    16:00 +28°C° 0 mm 6 mps 755 mmHg 47%
    17:00 +28°C° 0 mm 6 mps 755 mmHg 48%
    18:00 +26°C° 0 mm 5 mps 755 mmHg 55%
    19:00 +23°C° 0 mm 4 mps 756 mmHg 62%
    20:00 +22°C° 0 mm 3 mps 756 mmHg 69%
    21:00 +21°C° 0 mm 3 mps 756 mmHg 73%
    22:00 +20°C° 0 mm 3 mps 756 mmHg 78%
    23:00 +19°C° 0 mm 3 mps 757 mmHg 82%

    Tomorrow, 25 July, Thursday

    Time Temperature Precipitation Wind Pressure Humidity
    00:00 +19°C° 0 mm 3 mps 757 mmHg 85%
    01:00 +18°C° 0 mm 3 mps 757 mmHg 87%
    02:00 +18°C° 0 mm 3 mps 757 mmHg 90%
    03:00 +18°C° 0 mm 3 mps 757 mmHg 91%
    04:00 +17°C° 0 mm 3 mps 757 mmHg 92%
    05:00 +17°C° 0 mm 3 mps 757 mmHg 94%
    06:00 +19°C° 0 mm 4 mps 757 mmHg 86%
    07:00 +21°C° 0 mm 4 mps 757 mmHg 79%
    08:00 +22°C° 0 mm 5 mps 757 mmHg 72%
    09:00 +25°C° 0 mm 5 mps 758 mmHg 65%
    10:00 +27°C° 0 mm 5 mps 758 mmHg 58%
    11:00 +28°C° 0 mm 5 mps 758 mmHg 51%
    12:00 +29°C° 0.1 mm 4 mps 757 mmHg 48%
    13:00 +29°C° 0.1 mm 4 mps 757 mmHg 46%
    14:00 +30°C° 0.1 mm 4 mps 756 mmHg 43%
    15:00 +30°C° 0 mm 4 mps 756 mmHg 42%
    16:00 +30°C° 0 mm 4 mps 756 mmHg 42%
    17:00 +30°C° 0 mm 4 mps 756 mmHg 41%
    18:00 +28°C° 0 mm 3 mps 756 mmHg 47%
    19:00 +26°C° 0 mm 3 mps 756 mmHg 53%
    20:00 +24°C° 0 mm 2 mps 756 mmHg 59%
    21:00 +24°C° 0 mm 2 mps 756 mmHg 61%
    22:00 +23°C° 0 mm 1 mps 756 mmHg 62%
    23:00 +23°C° 0 mm 1 mps 756 mmHg 64%

    Day after tomorrow, 26 July, Friday

    Time Temperature Precipitation Wind Pressure Humidity
    00:00 +20°C° 0 mm 0 mps 756 mmHg 66%
    01:00 +19°C° 0 mm 0 mps 756 mmHg 68%
    02:00 +19°C° 0 mm 0 mps 755 mmHg 70%
    03:00 +19°C° 0 mm 0 mps 755 mmHg 71%
    04:00 +19°C° 0 mm 0 mps 755 mmHg 71%
    05:00 +19°C° 0 mm 0 mps 755 mmHg 71%
    06:00 +21°C° 0 mm 0 mps 755 mmHg 66%
    07:00 +24°C° 0 mm 1 mps 755 mmHg 61%
    08:00 +26°C° 0 mm 1 mps 754 mmHg 56%
    09:00 +27°C° 0 mm 1 mps 754 mmHg 53%
    10:00 +28°C° 0 mm 1 mps 754 mmHg 50%
    11:00 +30°C° 0 mm 1 mps 754 mmHg 47%
    12:00 +30°C° 0.1 mm 2 mps 753 mmHg 45%
    13:00 +30°C° 0.1 mm 2 mps 753 mmHg 44%
    14:00 +31°C° 0.1 mm 2 mps 752 mmHg 43%
    15:00 +31°C° 0 mm 2 mps 752 mmHg 44%
    16:00 +30°C° 0 mm 2 mps 752 mmHg 46%
    17:00 +30°C° 0 mm 2 mps 752 mmHg 47%
    18:00 +28°C° 0.1 mm 2 mps 752 mmHg 53%
    19:00 +27°C° 0.1 mm 2 mps 752 mmHg 58%
    20:00 +25°C° 0.1 mm 1 mps 752 mmHg 63%
    21:00 +24°C° 0.8 mm 1 mps 752 mmHg 69%
    22:00 +21°C° 0.8 mm 0 mps 752 mmHg 76%
    23:00 +20°C° 0.8 mm 0 mps 752 mmHg 82%

    27 July, Saturday

    Time Temperature Precipitation Wind Pressure Humidity
    00:00 +21°C° 0.6 mm 1 mps 751 mmHg 84%
    01:00 +21°C° 0.6 mm 1 mps 751 mmHg 85%
    02:00 +20°C° 0.6 mm 1 mps 751 mmHg 87%
    03:00 +20°C° 0.1 mm 1 mps 751 mmHg 87%
    04:00 +19°C° 0.1 mm 2 mps 751 mmHg 88%
    05:00 +18°C° 0.1 mm 2 mps 751 mmHg 89%
    06:00 +20°C° 0 mm 2 mps 751 mmHg 83%
    07:00 +21°C° 0 mm 3 mps 751 mmHg 78%
    08:00 +24°C° 0 mm 3 mps 751 mmHg 73%
    09:00 +25°C° 0 mm 3 mps 751 mmHg 66%
    10:00 +27°C° 0 mm 3 mps 750 mmHg 59%
    11:00 +28°C° 0 mm 3 mps 750 mmHg 53%
    12:00 +29°C° 0.1 mm 2 mps 750 mmHg 51%
    13:00 +29°C° 0.1 mm 2 mps 750 mmHg 50%
    14:00 +29°C° 0.1 mm 2 mps 749 mmHg 49%
    15:00 +29°C° 0 mm 2 mps 749 mmHg 48%
    16:00 +29°C° 0 mm 2 mps 749 mmHg 47%
    17:00 +29°C° 0 mm 2 mps 749 mmHg 46%
    18:00 +28°C° 0 mm 2 mps 749 mmHg 50%
    19:00 +26°C° 0 mm 2 mps 749 mmHg 54%
    20:00 +25°C° 0 mm 2 mps 749 mmHg 59%
    21:00 +24°C° 0 mm 2 mps 749 mmHg 61%
    22:00 +23°C° 0 mm 1 mps 749 mmHg 64%
    23:00 +23°C° 0 mm 1 mps 749 mmHg 67%

    28 July, Sunday

    Time Temperature Precipitation Wind Pressure Humidity
    00:00 +22°C° 0 mm 1 mps 749 mmHg 72%
    01:00 +21°C° 0 mm 1 mps 749 mmHg 77%
    02:00 +19°C° 0 mm 0 mps 749 mmHg 82%
    03:00 +20°C° 0 mm 1 mps 749 mmHg 82%
    04:00 +20°C° 0 mm 1 mps 749 mmHg 82%
    05:00 +20°C° 0 mm 1 mps 749 mmHg 82%
    06:00 +22°C° 0.1 mm 1 mps 749 mmHg 76%
    07:00 +23°C° 0.1 mm 1 mps 749 mmHg 69%
    08:00 +25°C° 0.1 mm 2 mps 749 mmHg 63%
    09:00 +26°C° 0.3 mm 2 mps 749 mmHg 59%
    10:00 +27°C° 0.3 mm 2 mps 749 mmHg 56%
    11:00 +28°C° 0.3 mm 2 mps 749 mmHg 53%
    12:00 +28°C° 0.3 mm 2 mps 749 mmHg 53%
    13:00 +29°C° 0.3 mm 2 mps 749 mmHg 52%
    14:00 +29°C° 0.3 mm 2 mps 748 mmHg 51%
    15:00 +29°C° 0 mm 2 mps 748 mmHg 51%
    16:00 +29°C° 0 mm 1 mps 748 mmHg 51%
    17:00 +29°C° 0 mm 1 mps 748 mmHg 51%
    18:00 +27°C° 0.1 mm 1 mps 748 mmHg 57%
    19:00 +26°C° 0.1 mm 1 mps 748 mmHg 63%
    20:00 +24°C° 0.1 mm 1 mps 748 mmHg 69%
    21:00 +24°C° 0.5 mm 1 mps 748 mmHg 73%
    22:00 +23°C° 0.5 mm 1 mps 749 mmHg 77%
    23:00 +22°C° 0.5 mm 1 mps 749 mmHg 81%

    29 July, Monday

    Time Temperature Precipitation Wind Pressure Humidity
    00:00 +22°C° 0 mm 1 mps 749 mmHg 82%
    01:00 +20°C° 0 mm 2 mps 749 mmHg 82%
    02:00 +20°C° 0 mm 2 mps 749 mmHg 83%
    03:00 +19°C° 0 mm 2 mps 749 mmHg 85%
    04:00 +19°C° 0 mm 2 mps 749 mmHg 87%
    05:00 +18°C° 0 mm 2 mps 749 mmHg 89%
    06:00 +20°C° 0 mm 3 mps 749 mmHg 85%
    07:00 +22°C° 0 mm 4 mps 749 mmHg 80%
    08:00 +23°C° 0 mm 5 mps 749 mmHg 76%
    09:00 +25°C° 0.3 mm 5 mps 749 mmHg 71%
    10:00 +27°C° 0.3 mm 5 mps 749 mmHg 67%
    11:00 +28°C° 0.3 mm 5 mps 750 mmHg 62%
    12:00 +28°C° 0.9 mm 5 mps 750 mmHg 61%
    13:00 +28°C° 0.9 mm 5 mps 750 mmHg 60%
    14:00 +28°C° 0.9 mm 5 mps 750 mmHg 59%
    15:00 +28°C° 0 mm 5 mps 750 mmHg 58%
    16:00 +27°C° 0 mm 5 mps 750 mmHg 57%
    17:00 +27°C° 0 mm 5 mps 750 mmHg 55%
    18:00 +25°C° 0 mm 5 mps 751 mmHg 59%
    19:00 +23°C° 0 mm 4 mps 751 mmHg 63%
    20:00 +21°C° 0 mm 3 mps 752 mmHg 67%
    21:00 +20°C° 0 mm 3 mps 752 mmHg 67%
    22:00 +19°C° 0 mm 4 mps 753 mmHg 68%
    23:00 +18°C° 0 mm 4 mps 754 mmHg 68%
    Show more